"Pseudo-MPEC" for A10quWn

Created 2020 Sep 19 22:07:03 UT using Find_Orb

Click here for an explanation of pseudo-MPECs

 
 Astrometry: 
     A10quWn  C2020 09 15.59952104 36 19.99 -40 16 02.5    ~9FGb 19.00oVNEOCPT08
     A10quWn  C2020 09 15.60274604 36 20.00 -40 16 04.8    ~9FGb 18.92oVNEOCPT08
     A10quWn  C2020 09 15.61935104 36 19.79 -40 16 14.9    ~9FGb 19.02oVNEOCPT08
     A10quWn  C2020 09 15.62845304 36 19.65 -40 16 21.1    ~9FGb 19.12oVNEOCPT08
     A10quWn KC2020 09 16EZkKL2!B.,dlChgko5DS)PZuUliLh,k92W;.eGL2ELf'k[ihy@HOE94
     A10quWn KC2020 09 16unr!oab:tr;]7=/I\$(cI=Y9+X3-a.!Z0JAreAF77)N.9R$O0,83E94
     A10quWn KC2020 09 16#K.]9oEHpY2A*`uPwfZ%NMWRg^nU;?Astrometry[Iur!wiZ/d4mE94
     A10quWn KC2020 09 18$dC!PWZ%^81`YJT4eMJiPyaQvPf_nRrdOMoa.Ny_`Y/nHuvrLK%WE94
     A10quWn KC2020 09 18!0w`$RlQpuXe6@redacted;m6@SPTxVkt(/S52Ty/n#a:.XiAwakE94
     A10quWn KC2020 09 18p\xFjnxF`s(Is[^_i7o7;0Q#htx@`eJvcJf1IfqvnuI)3/rK$/@4E94
     A10quWn KC2020 09 18:CW4Bwi\b92%xjgc272;JAguyP;hj9yX5vGK8;]qY[aS#ce:OZ?KE94
     A10quWn KC2020 09 19Gn$Q0lA#kSlAU=3J^)5]h#-rOAkTh_3?I%:LKGrF54LiL/XLl*l-W73
     A10quWn KC2020 09 19VvNG*p,=iVw]\+UaDjh4=wFiDGsjTO@]vK-]Bwms4)us^R[]BIK_W73
     A10quWn KC2020 09 19qOxHiMR/0N4clickqe1nX*]bZV2herek].:bnoZCmxE\KQF54-EEW73
     A10quWn 2C2020 09 19U$*8@otP`2^Ut,JT)qforSO.XTn`BU`B0L#^jL2tfD2A??EMHqZQJ04
     A10quWn 2C2020 09 19%9XYar!XwvI)4mUGABET=s=lu4LM9?_LZ1'Pj%W@(:/PJ0qFUK=NJ04
     A10quWn 2C2020 09 19xZ@tHFG;@`gqIQa(b\0E`LUXrd]68\J2VMYWhy=0y43*P;lfKo1fJ04
     A10quWn KC2020 09 19u@xH*[^w=b/M5h*$A!hu6!%@r,AAqap7_AAV8?(@.p$flTgpUl6KW94
     A10quWn KC2020 09 19vG9m.0*nN%i+x[J!XvZEh`S/0cF4tv[4ijDM8LR[WP[Vrn-RmO8FW94
     A10quWn KC2020 09 19_Hcexplanation;HxiD3#gW!:INl*_wGA-?5:q\Dc(]elR3DA11yW94

Station data:
(E94) Gisborne (Possum Observatory)  (S38.629922 E177.883310)  New Zealand.
(J04) ESA Optical Ground Station, Tenerife  (N28.300924 W16.511830)  Canary
   Islands (Spain).  Observer D. Abreu. Measurers M. Micheli, D. Koschny, E.
   Schwab, M. Busch, A. Knöfel. 1.0-m f/4.4 reflector + CCD.
(T08) ATLAS-MLO, Mauna Loa  (N19.536152 W155.576050)  US/Hawaii.  Observers
   L. Denneau, A. Heinze, H. Weiland, J. Tonry, H. Flewelling, A.
   Fitzsimmons, D. Young, B. Stalder. Measurers L. Denneau, A. Heinze, J.
   Tonry. 0.5-m f/2.0 Schmidt + CCD.
(W73) Unknown Station Code.
(W94) AMACS1, San Pedro de Atacama  (S22.953076 W68.179810)  Chile.

Orbital elements:  A10quWn
   Perihelion 2024 Jul 21.448578 TT = 10:45:57 (JD 2460512.948578)
Epoch 2020 Sep 19.0 TT = JDT 2459111.5   Earth MOID: 0.5389   AutoNEOCP
M 180.20097919                      (J2000 ecliptic)
n   0.12829512     Peri.   63.87520
a   3.89340228     Node   257.38044
e   0.6747875      Incl.  111.19744
P   7.68           H   10.4     G   0.15   q 1.26618289  Q 6.52062167
17 of 20 observations 2020 Sept. 15-19; mean residual 0".77
Residuals in arcseconds: 
200915 T08  .29-  .60-    200918 E94  .84-  .80+    200919 J04  .20+  .31-    
200915 T08  .35+  .89-    200918 E94  .12+  .90+    200919 J04  .20+  .49-    
200915 T08  .63+  .64-    200918 E94  .01-  1.3+    200919 J04  .23+  .34-    
200915 T08  .50+  1.2-    200918 E94  .15+  .20+    200919 W94  .20+  .33+    
200916 E94  .01-  1.4+    200919 W73( .93+  .56-)   200919 W94  .60+  1.0-    
200916 E94  .69-  1.2+    200919 W73( 1.1+  .76-)   200919 W94  .48-  2.0-    
200916 E94  .85-  1.4+    200919 W73( 1.1+  .55-)   

Ephemerides (geocentric):
Date (UTC) HH   RA              Dec         delta   r     elong  mag
---- -- -- --  -------------   -----------  ------ ------ -----  ---
2020 09 19 22  04 35 13.449   -41 00 46.14  6.1935 6.5206 104.7 19.0
2020 09 19 23  04 35 12.721   -41 01 12.02  6.1932 6.5206 104.7 19.0
2020 09 20 00  04 35 11.992   -41 01 37.89  6.1929 6.5206 104.7 19.0
2020 09 20 01  04 35 11.261   -41 02 03.77  6.1926 6.5206 104.7 19.0
2020 09 20 02  04 35 10.528   -41 02 29.65  6.1924 6.5206 104.7 19.0
2020 09 20 03  04 35 09.794   -41 02 55.52  6.1921 6.5206 104.8 19.0
2020 09 20 04  04 35 09.058   -41 03 21.39  6.1918 6.5206 104.8 19.0
2020 09 20 05  04 35 08.321   -41 03 47.27  6.1915 6.5206 104.8 19.0
2020 09 20 06  04 35 07.582   -41 04 13.14  6.1912 6.5206 104.8 19.0
2020 09 20 07  04 35 06.841   -41 04 39.00  6.1910 6.5206 104.8 19.0
2020 09 20 08  04 35 06.099   -41 05 04.87  6.1907 6.5206 104.8 19.0
2020 09 20 09  04 35 05.355   -41 05 30.74  6.1904 6.5206 104.9 19.0
2020 09 20 10  04 35 04.609   -41 05 56.60  6.1901 6.5206 104.9 19.0
2020 09 20 11  04 35 03.862   -41 06 22.46  6.1898 6.5206 104.9 19.0
2020 09 20 12  04 35 03.113   -41 06 48.33  6.1896 6.5206 104.9 19.0
2020 09 20 13  04 35 02.362   -41 07 14.19  6.1893 6.5206 104.9 19.0
2020 09 20 14  04 35 01.610   -41 07 40.04  6.1890 6.5206 104.9 19.0
2020 09 20 15  04 35 00.856   -41 08 05.90  6.1887 6.5206 105.0 19.0
2020 09 20 16  04 35 00.100   -41 08 31.76  6.1885 6.5206 105.0 19.0
2020 09 20 17  04 34 59.343   -41 08 57.61  6.1882 6.5206 105.0 19.0
2020 09 20 18  04 34 58.584   -41 09 23.46  6.1879 6.5206 105.0 19.0
2020 09 20 19  04 34 57.823   -41 09 49.31  6.1876 6.5206 105.0 19.0
2020 09 20 20  04 34 57.061   -41 10 15.16  6.1874 6.5206 105.1 19.0
2020 09 20 21  04 34 56.297   -41 10 41.01  6.1871 6.5206 105.1 19.0
2020 09 20 22  04 34 55.532   -41 11 06.86  6.1868 6.5206 105.1 19.0
2020 09 20 23  04 34 54.765   -41 11 32.70  6.1865 6.5206 105.1 19.0
2020 09 21 00  04 34 53.996   -41 11 58.54  6.1862 6.5206 105.1 19.0
2020 09 21 01  04 34 53.225   -41 12 24.38  6.1860 6.5206 105.1 19.0
2020 09 21 02  04 34 52.453   -41 12 50.22  6.1857 6.5206 105.2 19.0
2020 09 21 03  04 34 51.679   -41 13 16.06  6.1854 6.5206 105.2 19.0
2020 09 21 04  04 34 50.904   -41 13 41.90  6.1851 6.5206 105.2 19.0
2020 09 21 05  04 34 50.127   -41 14 07.73  6.1849 6.5206 105.2 19.0
2020 09 21 06  04 34 49.348   -41 14 33.56  6.1846 6.5206 105.2 19.0
2020 09 21 07  04 34 48.568   -41 14 59.39  6.1843 6.5206 105.2 19.0
2020 09 21 08  04 34 47.786   -41 15 25.22  6.1841 6.5206 105.3 19.0
2020 09 21 09  04 34 47.002   -41 15 51.05  6.1838 6.5206 105.3 19.0
2020 09 21 10  04 34 46.217   -41 16 16.87  6.1835 6.5206 105.3 19.0
2020 09 21 11  04 34 45.430   -41 16 42.69  6.1832 6.5206 105.3 19.0
2020 09 21 12  04 34 44.641   -41 17 08.52  6.1830 6.5206 105.3 19.0
2020 09 21 13  04 34 43.851   -41 17 34.34  6.1827 6.5206 105.3 19.0
2020 09 21 14  04 34 43.059   -41 18 00.15  6.1824 6.5206 105.4 19.0
2020 09 21 15  04 34 42.265   -41 18 25.97  6.1821 6.5206 105.4 19.0
2020 09 21 16  04 34 41.470   -41 18 51.78  6.1819 6.5206 105.4 19.0
2020 09 21 17  04 34 40.673   -41 19 17.59  6.1816 6.5206 105.4 19.0
2020 09 21 18  04 34 39.874   -41 19 43.40  6.1813 6.5206 105.4 19.0
2020 09 21 19  04 34 39.074   -41 20 09.21  6.1811 6.5206 105.4 19.0
2020 09 21 20  04 34 38.272   -41 20 35.02  6.1808 6.5206 105.5 19.0
2020 09 21 21  04 34 37.468   -41 21 00.82  6.1805 6.5206 105.5 19.0